Temperature
21 21 21 21 20 19 19 18 18 17 17 16 16 16 16 16 16 16 16 16 16 17 17 17 17 17 17 17 17 17 17 17 17 18 17 17 17 17 17 17 17 17 17
21 21 21 20 20 19 18 18 17 17 16 16 16 16 16 16 16 16 16 16 16 16 16 16 17 17 17 17 17 17 17 17 17 17 17 17 17 17 17 17 17 17 17
21 20 20 20 19 19 18 18 17 17 16 16 16 16 16 16 16 16 16 16 16 16 16 16 16 17 17 17 17 17 17 17 17 17 17 17 17 17 17 17 17 17 17
20 19 19 19 19 18 18 17 17 17 17 16 16 16 16 16 16 16 16 16 16 16 16 16 16 16 16 16 16 16 16 16 16 17 17 17 17 17 17 17 17 17 17
19 18 18 17 18 18 17 17 16 16 16 16 16 16 16 16 16 16 16 16 16 16 16 16 16 16 16 16 16 16 16 16 16 16 16 16 17 17 17 17 17 17 17
17 17 17 17 17 17 17 17 16 16 15 15 15 15 15 15 15 15 16 16 16 16 16 16 16 16 16 16 16 16 16 16 16 16 16 16 16 17 17 17 17 17 17
16 16 16 16 16 15 16 16 16 16 16 15 15 14 15 15 15 15 15 15 15 15 15 15 15 15 15 16 16 16 16 15 16 16 16 16 16 16 16 16 17 17 17
15 15 15 15 15 15 15 15 15 14 15 15 14 14 14 14 14 14 15 15 15 15 15 15 15 15 15 15 16 16 16 15 15 16 16 16 16 16 16 16 16 16 17
15 14 14 15 15 14 14 14 14 14 14 14 14 14 14 14 14 14 14 14 14 14 14 15 15 15 15 15 15 15 15 15 15 15 15 15 16 16 16 16 16 16 16
13 13 13 13 14 14 14 14 14 14 14 14 14 14 14 14 14 14 14 14 14 14 14 14 14 14 15 15 15 15 15 15 15 15 15 15 15 15 16 16 16 16 16
13 12 12 13 13 13 13 13 13 13 13 13 13 14 14 13 13 14 14 14 14 14 14 14 14 14 14 14 14 14 15 15 15 15 15 15 15 15 15 16 16 16 16
11 11 12 12 12 12 12 12 12 12 12 13 13 13 13 13 13 13 13 14 14 14 14 14 14 14 14 14 14 14 14 14 15 15 15 15 15 15 15 15 16 16 16
9 10 10 11 11 12 12 12 12 12 12 12 12 12 12 12 13 13 13 13 13 13 13 13 13 13 13 13 13 13 14 14 14 15 15 15 15 15 15 15 15 15 16
9 9 10 10 11 11 11 11 12 12 12 12 12 12 12 12 12 12 12 13 13 13 13 13 13 13 13 13 13 13 13 13 14 14 15 15 15 14 14 15 15 15 15
8 8 9 9 10 10 10 11 11 11 11 11 11 12 12 12 12 12 12 12 12 12 13 13 13 13 13 13 13 13 13 13 13 13 14 14 14 14 14 14 15 15 15
7 7 8 8 8 9 9 9 10 10 10 11 11 11 11 11 12 12 12 12 12 12 12 12 12 12 12 12 12 12 12 12 13 13 13 14 14 14 14 14 15 15 15
6 6 7 7 7 8 8 8 8 9 9 10 10 11 10 11 11 11 12 12 12 12 12 12 12 12 12 12 12 12 12 12 12 12 12 13 13 13 13 14 14 14 15
5 6 6 6 6 7 7 7 7 7 8 8 9 9 10 10 10 10 10 11 12 12 12 11 11 11 12 12 12 12 12 12 12 12 12 12 13 13 13 13 14 14 14
5 5 5 5 5 6 6 6 6 6 6 6 6 7 8 8 8 8 8 9 10 11 11 11 11 11 11 11 11 11 11 11 12 12 12 12 12 13 13 13 14 14 14
4 4 4 4 4 4 5 5 5 5 4 4 4 5 5 6 6 6 6 7 8 9 10 10 10 10 10 11 11 11 11 11 11 11 12 12 12 13 13 13 13 13 13
4 3 3 3 3 2 2 2 2 2 2 2 2 3 3 4 4 4 5 6 6 7 8 9 9 10 10 10 10 10 11 11 11 11 12 12 12 12 13 13 13 13 13
2 1 1 0 -1 -1 -1 -1 -1 -0 0 1 1 2 2 2 2 3 3 4 5 6 7 8 8 9 9 9 9 9 10 10 11 11 11 12 12 12 12 13 13 13 13
-0 -1 -1 -2 -2 -3 -3 -2 -2 -1 -1 -0 0 1 1 1 2 2 2 3 3 4 5 6 7 8 8 9 9 9 9 10 10 11 11 11 12 12 12 12 12 13 13
-2 -3 -3 -3 -3 -3 -3 -3 -3 -4 -4 -3 -3 -1 -0 0 1 1 1 2 3 3 4 5 6 6 7 7 8 8 9 9 10 10 10 11 11 11 12 12 12 12 12
-4 -4 -4 -4 -4 -4 -4 -4 -4 -5 -5 -5 -5 -4 -4 -3 -2 -2 -1 0 2 2 3 4 5 6 6 6 7 7 8 8 9 10 10 10 10 11 11 11 11 12 12
-5 -5 -5 -6 -6 -6 -5 -5 -5 -6 -6 -6 -6 -6 -6 -6 -5 -4 -3 -2 -1 1 2 3 3 4 5 6 6 7 7 8 8 9 9 9 10 10 10 10 10 11 11
Wind_Speed
5 7 11 11 10 8 7 4 2 1 2 5 3 2 1 1 2 2 1 1 1 1 1 2 2 2 2 3 4 4 4 5 5 6 6 8 9 9 9 10 10 9 8
3 9 11 10 8 7 6 4 3 0 2 3 3 1 1 2 3 3 4 4 4 3 3 4 4 3 3 3 4 4 5 4 5 6 6 6 8 9 10 10 9 9 9
3 6 5 6 6 5 4 4 4 3 1 1 1 1 3 4 5 5 6 7 7 7 7 7 6 5 4 5 5 5 5 4 4 5 5 5 6 8 9 9 9 9 9
5 3 1 3 4 4 5 5 5 5 4 3 3 3 4 5 6 6 8 8 8 10 10 9 8 7 6 6 6 6 6 6 5 4 4 4 4 8 9 9 9 9 8
7 5 4 2 3 4 5 6 6 6 6 6 6 6 6 7 7 8 9 10 9 9 10 10 9 8 7 7 7 7 7 7 7 5 3 3 3 7 10 9 9 9 9
9 9 7 3 4 5 5 6 7 7 7 7 8 7 7 9 9 9 9 10 8 6 7 7 7 8 7 6 6 7 8 8 8 6 5 5 7 9 11 11 10 10 10
12 16 15 11 8 6 6 6 7 8 8 9 10 8 8 11 11 10 9 9 7 5 5 5 5 6 6 5 5 7 8 8 7 6 6 6 9 13 14 13 12 11 10
20 24 25 25 21 15 10 8 8 8 8 10 10 8 9 11 11 10 10 10 8 6 5 5 5 6 5 5 5 6 7 7 6 7 7 6 9 14 15 15 13 12 11
27 27 27 28 27 25 20 15 12 11 10 10 10 10 11 12 11 11 11 11 10 8 7 6 6 6 5 6 6 6 7 7 5 6 7 7 9 13 15 16 15 14 12
23 25 27 28 29 27 24 23 21 18 16 14 14 13 13 13 11 10 10 11 11 10 9 9 9 8 7 6 6 6 7 7 6 7 7 9 10 13 16 17 17 16 14
25 22 25 27 28 27 25 27 27 26 25 22 18 16 14 11 10 10 11 12 13 12 11 11 11 11 9 8 8 7 7 6 6 6 8 11 13 14 16 18 19 17 16
23 22 21 24 27 27 24 24 24 23 24 24 23 21 16 12 11 10 11 13 14 15 15 14 14 13 11 8 8 8 6 7 7 7 10 12 15 16 16 18 19 19 18
13 18 19 22 26 26 22 21 21 21 22 23 25 26 21 16 12 10 9 10 11 12 11 12 12 10 8 7 7 7 7 7 7 9 11 13 16 17 17 18 19 20 19
17 19 17 22 24 24 22 20 21 20 19 19 22 25 21 12 11 10 7 7 6 6 6 6 5 7 7 7 7 7 7 7 8 9 12 15 16 18 19 19 19 21 21
19 20 19 19 22 22 20 19 19 19 19 20 21 24 23 13 10 10 8 9 7 6 4 4 4 4 5 5 6 6 6 7 9 11 11 15 17 18 20 21 21 21 22
19 19 19 16 23 23 18 15 14 17 18 19 19 22 23 19 14 10 9 7 7 8 6 4 5 5 5 5 6 6 6 7 8 10 12 14 17 19 20 22 23 23 23
15 16 18 16 22 21 18 17 17 16 16 15 17 20 22 22 19 14 10 10 9 12 9 6 5 4 5 5 7 7 6 6 7 9 11 12 14 17 21 23 24 23 24
15 17 17 19 18 18 17 17 16 17 15 14 15 17 20 22 22 16 9 10 14 13 7 6 6 5 5 5 6 6 6 6 7 8 9 11 12 13 16 21 24 24 24
14 15 17 17 17 17 18 17 17 16 15 15 15 15 19 20 21 17 10 10 15 10 8 8 6 5 6 6 7 7 6 6 7 7 7 8 11 13 14 16 22 25 25
13 14 16 18 17 17 15 12 10 10 11 14 14 16 20 20 21 18 11 12 13 10 9 9 9 8 6 6 7 6 6 6 6 6 8 7 8 11 14 14 14 17 23
17 18 19 20 19 17 15 15 15 14 12 11 12 19 21 21 21 17 11 11 11 10 11 12 10 10 7 5 4 5 5 6 7 6 6 6 7 8 10 12 12 12 13
16 16 17 18 18 16 16 14 14 14 12 11 15 19 20 21 21 18 13 13 13 12 13 12 10 8 6 5 5 4 4 4 5 5 4 5 6 5 7 9 10 10 11
16 17 18 18 18 16 17 14 15 13 12 12 14 14 18 23 21 19 15 12 13 12 12 13 12 10 10 7 7 6 5 7 3 2 2 3 4 5 6 6 7 9 11
18 17 17 18 18 17 18 17 19 15 15 16 14 14 17 21 20 19 17 14 12 12 13 13 13 10 10 10 6 7 5 4 5 3 2 1 1 3 4 5 6 7 9
17 17 17 17 17 17 17 18 18 17 15 15 16 16 15 14 15 16 16 12 12 11 13 14 15 14 10 10 8 5 5 3 3 4 4 2 1 1 1 2 4 4 7
14 16 17 18 17 17 18 18 18 19 20 20 20 18 16 14 13 13 16 10 10 11 12 13 14 16 14 11 9 6 5 4 5 4 4 3 3 1 1 1 2 3 3
Wind_Direction
231 215 209 186 188 189 191 186 161 62 190 153 129 99 61 26 24 32 25 95 112 131 175 189 180 172 159 151 149 147 143 134 123 114 122 135 136 135 138 140 131 122 118
190 185 201 189 194 199 202 211 218 337 70 117 109 70 334 316 306 301 295 288 279 264 245 235 222 214 201 181 170 172 172 153 131 112 106 119 133 137 137 140 136 136 133
78 157 201 192 202 214 221 232 243 254 311 24 24 321 299 294 297 300 292 280 269 263 253 243 236 231 219 200 191 190 188 172 150 124 114 122 140 144 142 142 143 143 143
67 97 57 210 223 236 242 248 251 251 259 275 281 281 286 288 287 292 301 299 279 265 257 249 243 237 225 211 202 199 198 185 170 149 142 157 170 164 157 154 152 149 149
56 56 29 265 258 265 263 263 261 256 252 256 255 255 263 273 280 287 295 303 299 274 261 254 247 245 238 224 212 206 205 196 183 175 186 202 214 188 173 167 160 155 154
32 26 8 328 299 288 280 273 270 267 261 263 262 259 266 269 264 269 284 294 302 293 280 270 256 252 253 242 226 222 218 208 190 190 211 233 233 212 185 172 164 160 159
23 18 10 359 340 317 298 286 276 272 270 271 272 263 271 280 273 259 265 274 277 291 303 298 282 269 265 258 244 244 242 226 192 200 222 238 226 212 190 176 170 166 164
28 22 16 8 0 347 325 304 294 284 273 273 282 280 280 277 280 272 264 261 256 260 275 288 292 288 285 283 275 269 269 257 214 210 227 241 232 216 196 184 176 173 170
29 24 18 12 7 358 346 333 320 309 299 290 287 283 285 284 283 288 281 271 261 261 266 268 271 277 284 287 292 289 283 273 238 224 232 238 242 231 208 192 184 180 179
28 24 17 14 11 7 4 359 352 343 332 318 302 287 285 286 281 287 287 277 267 262 260 263 262 259 261 267 278 285 284 282 252 236 238 240 246 244 221 203 193 188 186
24 23 18 16 14 12 14 13 11 9 2 355 340 324 310 302 291 285 283 279 271 264 259 259 258 254 252 256 262 267 275 273 265 251 247 249 253 254 230 213 202 195 193
19 19 20 17 15 14 13 12 11 11 7 6 3 355 342 326 307 294 287 281 275 270 266 262 259 255 251 249 255 259 254 259 263 258 257 260 260 262 244 225 211 202 199
14 20 19 19 18 18 14 12 12 9 7 5 6 4 356 345 333 324 312 301 291 283 272 264 262 256 250 242 243 244 240 245 252 258 260 262 264 265 254 235 218 208 204
19 17 12 16 16 16 16 14 13 10 7 5 2 5 3 355 347 338 324 309 295 285 277 267 256 255 254 252 248 244 239 236 241 250 256 258 260 261 258 243 226 215 208
15 10 6 10 11 7 9 10 12 9 7 3 4 5 4 360 350 342 332 323 310 297 279 272 262 259 257 256 252 243 239 238 241 245 251 253 251 252 254 251 236 224 216
14 9 4 7 7 2 1 359 2 3 3 3 4 3 3 0 354 346 336 328 320 309 288 267 261 263 263 258 257 248 243 243 243 243 244 249 249 249 250 250 245 231 222
11 9 6 4 4 359 355 351 351 350 355 358 358 360 1 359 355 349 341 337 332 322 302 280 262 247 250 249 252 251 247 240 239 241 242 242 246 247 246 246 245 236 226
8 5 3 1 357 353 349 345 343 342 344 347 350 355 357 356 353 348 339 335 333 327 310 291 272 262 252 244 246 247 241 240 239 237 237 235 237 242 244 242 241 237 229
5 2 359 357 354 350 345 342 337 335 336 338 344 351 352 351 349 343 331 328 330 326 316 303 286 256 255 254 249 247 237 234 237 238 233 230 230 231 235 239 237 235 229
1 0 358 356 354 350 348 342 337 334 334 334 338 346 345 343 342 338 328 328 328 324 322 314 297 276 250 248 255 251 240 235 233 233 238 235 230 229 229 231 235 235 231
1 1 359 357 354 354 353 350 345 340 339 336 337 341 337 337 337 332 329 325 324 319 314 309 301 287 268 241 240 260 261 243 236 234 232 234 233 229 225 225 226 227 229
354 355 356 355 351 354 353 346 340 333 332 333 335 333 334 336 333 331 329 325 321 318 314 311 308 293 277 232 212 229 264 286 254 236 232 231 234 226 223 220 218 218 218
352 352 352 350 349 353 353 347 344 339 338 340 337 334 335 333 330 328 325 323 319 317 313 311 306 294 285 268 224 205 204 225 244 261 235 231 236 227 228 221 214 215 216
349 347 349 348 349 355 355 350 349 345 340 336 332 327 327 326 324 323 323 320 317 316 312 310 309 300 285 275 254 230 225 191 181 219 257 236 216 221 232 231 224 218 215
347 350 350 346 351 355 352 349 346 341 338 333 331 327 327 322 315 313 313 310 310 309 306 306 307 301 287 271 256 231 222 235 204 168 204 232 224 201 237 238 227 218 209
351 355 350 347 350 352 350 348 345 341 338 335 334 332 331 327 323 316 314 303 300 299 299 300 298 295 288 274 259 235 207 189 192 176 173 188 206 240 291 285 216 203 192
Height
1528 1527 1526 1526 1526 1526 1527 1528 1528 1529 1529 1530 1530 1531 1531 1532 1532 1533 1533 1533 1533 1533 1533 1534 1534 1534 1535 1535 1535 1536 1536 1537 1537 1537 1537 1538 1538 1539 1540 1541 1541 1542 1543
1530 1529 1529 1528 1528 1528 1528 1529 1529 1529 1530 1530 1530 1530 1531 1531 1531 1532 1532 1532 1533 1532 1532 1533 1533 1533 1534 1534 1535 1535 1536 1536 1537 1537 1537 1537 1538 1539 1540 1541 1542 1543 1543
1533 1532 1531 1530 1530 1529 1529 1529 1529 1529 1529 1530 1530 1530 1530 1530 1530 1531 1531 1531 1531 1531 1531 1531 1532 1532 1532 1533 1534 1534 1535 1536 1536 1537 1537 1538 1538 1539 1540 1541 1542 1543 1543
1535 1534 1533 1532 1531 1530 1530 1529 1529 1529 1529 1529 1529 1529 1529 1529 1529 1529 1529 1529 1529 1530 1530 1530 1530 1531 1531 1532 1532 1533 1534 1535 1536 1536 1537 1537 1538 1539 1540 1541 1542 1542 1543
1537 1536 1535 1534 1533 1531 1530 1529 1529 1528 1528 1527 1527 1527 1527 1527 1527 1527 1527 1528 1528 1528 1528 1528 1529 1530 1530 1531 1531 1532 1533 1534 1535 1535 1536 1537 1537 1538 1539 1540 1541 1542 1543
1538 1537 1536 1535 1534 1532 1531 1529 1528 1528 1527 1527 1526 1526 1526 1526 1526 1525 1525 1525 1526 1526 1526 1526 1527 1527 1528 1529 1530 1531 1532 1533 1533 1534 1535 1536 1537 1537 1538 1539 1540 1541 1542
1538 1537 1537 1536 1534 1532 1531 1529 1528 1527 1526 1526 1526 1525 1524 1524 1525 1524 1524 1524 1524 1524 1524 1525 1525 1525 1526 1527 1528 1529 1530 1531 1531 1532 1533 1534 1535 1536 1537 1538 1539 1540 1541
1537 1536 1535 1534 1533 1532 1531 1529 1528 1527 1526 1525 1524 1524 1523 1522 1522 1522 1522 1522 1522 1522 1522 1522 1523 1523 1524 1525 1525 1526 1527 1528 1529 1530 1531 1532 1533 1535 1536 1537 1538 1539 1540
1538 1536 1534 1533 1531 1530 1530 1529 1528 1527 1525 1524 1523 1522 1521 1520 1520 1520 1520 1520 1520 1520 1520 1520 1520 1520 1521 1522 1523 1523 1525 1525 1526 1527 1528 1529 1531 1532 1534 1535 1536 1537 1539
1540 1538 1536 1534 1532 1530 1529 1528 1527 1526 1525 1523 1522 1520 1519 1518 1518 1517 1517 1517 1517 1517 1517 1517 1517 1518 1518 1518 1519 1520 1521 1522 1523 1524 1526 1527 1528 1529 1531 1532 1533 1535 1537
1542 1540 1538 1536 1534 1531 1529 1527 1525 1524 1522 1521 1519 1518 1517 1516 1515 1514 1514 1514 1514 1514 1514 1514 1514 1515 1515 1515 1516 1516 1517 1518 1520 1521 1522 1524 1525 1526 1528 1529 1531 1532 1534
1544 1542 1540 1538 1535 1533 1531 1528 1526 1524 1522 1519 1517 1515 1514 1514 1513 1512 1511 1511 1511 1510 1510 1511 1511 1511 1512 1512 1512 1513 1513 1514 1515 1517 1518 1520 1521 1523 1524 1526 1528 1529 1531
1550 1546 1543 1540 1537 1534 1531 1528 1526 1524 1521 1519 1516 1514 1512 1511 1510 1509 1508 1508 1507 1507 1507 1507 1507 1508 1508 1508 1509 1509 1509 1509 1510 1512 1514 1515 1517 1519 1520 1522 1524 1526 1527
1553 1550 1547 1543 1539 1536 1533 1529 1526 1523 1520 1518 1516 1513 1511 1509 1507 1506 1505 1504 1504 1503 1503 1503 1503 1503 1504 1504 1504 1505 1505 1505 1505 1507 1509 1511 1512 1514 1516 1518 1520 1522 1524
1555 1552 1549 1546 1542 1538 1534 1530 1527 1523 1520 1517 1514 1512 1510 1507 1505 1503 1502 1500 1500 1499 1499 1499 1499 1499 1499 1499 1499 1500 1500 1500 1501 1501 1503 1505 1507 1509 1511 1513 1515 1517 1520
1558 1554 1551 1547 1543 1539 1535 1531 1527 1523 1519 1516 1513 1510 1508 1505 1502 1500 1499 1498 1496 1495 1495 1494 1494 1494 1494 1494 1494 1494 1495 1496 1496 1497 1498 1499 1501 1503 1505 1508 1510 1513 1515
1561 1557 1551 1547 1543 1538 1534 1530 1527 1523 1519 1515 1511 1508 1505 1502 1499 1496 1494 1493 1492 1491 1490 1489 1489 1489 1488 1488 1488 1489 1489 1490 1491 1492 1493 1494 1495 1497 1500 1502 1505 1507 1510
1562 1557 1552 1547 1542 1536 1532 1528 1523 1520 1516 1512 1508 1504 1500 1497 1494 1492 1490 1488 1486 1485 1484 1483 1483 1483 1483 1482 1482 1483 1483 1483 1484 1486 1487 1488 1489 1492 1494 1497 1499 1502 1505
1562 1557 1551 1545 1539 1534 1529 1524 1520 1515 1511 1508 1504 1500 1496 1492 1489 1486 1484 1482 1480 1478 1477 1477 1476 1476 1476 1476 1476 1476 1477 1477 1478 1479 1480 1482 1483 1485 1488 1491 1494 1497 1499
1561 1555 1549 1543 1537 1531 1525 1520 1515 1510 1506 1502 1498 1494 1491 1487 1483 1480 1478 1476 1473 1470 1469 1469 1469 1469 1469 1470 1470 1469 1470 1470 1471 1472 1473 1475 1477 1479 1481 1484 1487 1490 1493
1559 1553 1546 1540 1534 1528 1521 1515 1510 1505 1500 1496 1492 1489 1485 1481 1477 1474 1471 1468 1467 1464 1462 1461 1461 1461 1461 1463 1463 1463 1463 1464 1464 1465 1466 1468 1470 1472 1474 1477 1480 1483 1486
1558 1551 1545 1538 1532 1527 1521 1515 1509 1504 1498 1493 1489 1484 1480 1476 1472 1468 1465 1462 1460 1457 1455 1454 1454 1453 1453 1456 1457 1457 1456 1456 1456 1458 1459 1460 1462 1465 1467 1469 1472 1475 1479
1557 1551 1545 1538 1532 1526 1519 1512 1505 1499 1493 1488 1483 1479 1475 1470 1466 1462 1459 1456 1453 1450 1447 1446 1446 1446 1445 1447 1450 1451 1450 1448 1449 1450 1451 1452 1455 1457 1459 1462 1465 1468 1471
1556 1550 1544 1537 1531 1524 1517 1509 1502 1496 1490 1484 1479 1474 1469 1465 1461 1457 1453 1449 1446 1443 1440 1439 1438 1438 1438 1438 1440 1442 1444 1444 1444 1444 1445 1446 1448 1450 1452 1455 1457 1460 1463
1555 1548 1542 1536 1529 1522 1515 1508 1501 1495 1489 1482 1476 1470 1465 1459 1455 1451 1446 1442 1438 1435 1433 1431 1430 1429 1430 1430 1432 1434 1435 1436 1437 1438 1439 1441 1442 1444 1445 1447 1450 1453 1456
1553 1547 1540 1533 1526 1520 1513 1506 1499 1493 1486 1479 1473 1467 1461 1456 1451 1446 1440 1435 1431 1427 1424 1422 1421 1421 1421 1422 1424 1425 1427 1428 1429 1431 1433 1435 1437 1439 1440 1442 1444 1447 1449